F/V Argentario — FGPE — position and weather

sailwx.info

Track history (hours):
 
Tides and Currents Weather Stations Pressure Air Temp Water Temp Dewpoint Dewpoint Depression Visibility Wind Speed Wind Dir Waves Ship Positions

F/V Argentario

Last reported at 2014-Jul-27 18:08 UTC. Time now 2014-Jul-29 02:35 UTC.
Position N 46°11' W 004°19'.

Length 22 m; draft 3.4 m.

Type: Fishing. MMSI: 228975000.

Date/timePositionNaut miles runAvg speedWind from/ knotsBaromVisibWave heightAir tempDewpointWater temp
2014-Jul-27 18:08N 46°11' W 004°19'17 6.5
2014-Jul-27 15:33N 46°00' W 003°60'2 1.6
2014-Jul-27 14:19N 46°02' W 003°60'2 0.6
2014-Jul-27 11:05N 46°01' W 003°58'0 0.8
2014-Jul-27 10:33N 46°00' W 003°58'6 0.4
2014-Jul-26 19:23N 45°56' W 003°54'80 3.5
2014-Jul-25 20:30N 46°44' W 002°21'0 0.0
2014-Jul-25 19:27N 46°44' W 002°21'0 0.0
2014-Jul-25 18:31N 46°44' W 002°21'  
2014-Jul-23 02:32N 46°40' W 002°12'8 7.9
2014-Jul-23 01:33N 46°35' W 002°03'8 7.6
2014-Jul-23 00:33N 46°30' W 001°55'5 4.9
2014-Jul-22 23:33N 46°30' W 001°47'0 0.2
2014-Jul-22 22:33N 46°30' W 001°47'1 1.2
2014-Jul-22 21:33N 46°29' W 001°47'8 8.1
2014-Jul-22 20:33N 46°27' W 001°59'8 8.2
2014-Jul-22 19:33N 46°25' W 002°10'8 8.1
2014-Jul-22 18:33N 46°23' W 002°22'8 8.1
2014-Jul-22 17:33N 46°21' W 002°33'8 7.9
2014-Jul-22 16:32N 46°19' W 002°45'  
Track history (hours):
 
Tides and Currents Weather Stations Pressure Air Temp Water Temp Dewpoint Dewpoint Depression Visibility Wind Speed Wind Dir Waves Ship Positions

F/V Argentario

Last reported at 2014-Jul-27 18:08 UTC. Time now 2014-Jul-29 02:35 UTC.
Position N 46°11' W 004°19'.

Length 22 m; draft 3.4 m.

Type: Fishing. MMSI: 228975000.

Date/timePositionNaut miles runAvg speedWind from/ knotsBaromVisibWave heightAir tempDewpointWater temp
2014-Jul-27 18:08N 46°11' W 004°19'17 6.5
2014-Jul-27 15:33N 46°00' W 003°60'2 1.6
2014-Jul-27 14:19N 46°02' W 003°60'2 0.6
2014-Jul-27 11:05N 46°01' W 003°58'0 0.8
2014-Jul-27 10:33N 46°00' W 003°58'6 0.4
2014-Jul-26 19:23N 45°56' W 003°54'80 3.5
2014-Jul-25 20:30N 46°44' W 002°21'0 0.0
2014-Jul-25 19:27N 46°44' W 002°21'0 0.0
2014-Jul-25 18:31N 46°44' W 002°21'  
2014-Jul-23 02:32N 46°40' W 002°12'8 7.9
2014-Jul-23 01:33N 46°35' W 002°03'8 7.6
2014-Jul-23 00:33N 46°30' W 001°55'5 4.9
2014-Jul-22 23:33N 46°30' W 001°47'0 0.2
2014-Jul-22 22:33N 46°30' W 001°47'1 1.2
2014-Jul-22 21:33N 46°29' W 001°47'8 8.1
2014-Jul-22 20:33N 46°27' W 001°59'8 8.2
2014-Jul-22 19:33N 46°25' W 002°10'8 8.1
2014-Jul-22 18:33N 46°23' W 002°22'8 8.1
2014-Jul-22 17:33N 46°21' W 002°33'8 7.9
2014-Jul-22 16:32N 46°19' W 002°45'  

Dump ship's entire track history